Temp
-2 -2 -2 -2 -2 -2 -2 -2 -2 -2 -2 -2 -2 -2 -2 -1 -1 -1 -1 -1 -1 -1 -1 -0 -0 -0 -0 0 1 1 1 1 0 -0 -0 -0 -0 0 0 0 0 0 0 -0 -0 0 0 1 1 1 2 3
-3 -3 -3 -3 -3 -3 -2 -2 -2 -2 -2 -2 -2 -2 -2 -2 -2 -2 -1 -1 -1 -1 -1 -0 -1 -0 -0 -0 0 0 0 1 0 0 0 -0 -0 -0 -0 -0 -0 -0 0 -0 -0 -0 0 0 1 1 1 2
-4 -3 -3 -3 -3 -3 -3 -3 -3 -3 -3 -3 -3 -3 -2 -2 -2 -2 -2 -1 -2 -1 -1 -1 -1 -1 -0 -0 -0 -0 -0 -0 -0 -0 0 -0 -0 -1 -1 -1 -0 -0 -0 -0 -0 -0 -0 0 1 1 1 1
-4 -4 -4 -4 -4 -4 -4 -4 -3 -3 -3 -3 -3 -3 -3 -3 -2 -2 -2 -2 -2 -2 -1 -1 -1 -1 -1 -0 -0 -0 -0 -0 -1 -1 -1 -0 -1 -1 -1 -1 -1 -1 -1 -1 -1 -1 -1 -0 0 0 0 0
-5 -5 -5 -5 -5 -5 -5 -4 -4 -4 -4 -3 -3 -3 -3 -3 -3 -3 -2 -2 -2 -2 -2 -2 -1 -1 -1 -1 -1 -1 -0 -0 -1 -1 -1 -1 -1 -1 -1 -1 -1 -1 -1 -1 -1 -1 -1 -1 -1 -0 0 0
-6 -6 -6 -6 -6 -6 -6 -5 -5 -5 -4 -4 -4 -4 -3 -3 -3 -3 -3 -3 -2 -2 -2 -2 -2 -2 -2 -2 -1 -1 -1 -1 -1 -1 -1 -1 -1 -1 -1 -1 -1 -1 -1 -1 -1 -1 -1 -1 -1 -1 -0 -0
-7 -7 -7 -7 -7 -7 -7 -6 -6 -6 -6 -5 -5 -4 -4 -4 -4 -4 -4 -4 -3 -3 -3 -2 -3 -3 -2 -2 -2 -2 -1 -1 -1 -1 -1 -1 -1 -1 -1 -1 -1 -1 -1 -1 -1 -1 -1 -1 -1 -1 -1 -1
-8 -8 -8 -8 -8 -8 -8 -7 -7 -7 -7 -6 -6 -5 -5 -5 -5 -4 -4 -5 -5 -5 -4 -3 -3 -3 -3 -3 -3 -2 -2 -1 -1 -1 -1 -1 -1 -1 -1 -2 -2 -2 -1 -1 -1 -1 -1 -1 -1 -1 -1 -1
-9 -8 -8 -8 -8 -8 -8 -8 -8 -8 -8 -8 -7 -7 -6 -6 -6 -5 -5 -5 -5 -6 -5 -4 -4 -4 -4 -4 -4 -3 -3 -2 -2 -1 -1 -1 -1 -1 -2 -2 -2 -2 -2 -2 -1 -1 -1 -1 -1 -1 -1 -1
-9 -9 -9 -9 -9 -9 -9 -9 -9 -9 -9 -9 -9 -8 -8 -7 -7 -7 -7 -6 -6 -6 -6 -5 -5 -5 -5 -5 -4 -4 -3 -3 -2 -2 -1 -1 -2 -2 -2 -2 -2 -2 -2 -2 -2 -2 -1 -1 -1 -1 -1 -1
-10 -10 -10 -9 -9 -9 -9 -9 -9 -9 -9 -9 -9 -9 -9 -9 -9 -8 -8 -8 -7 -7 -7 -6 -5 -5 -5 -5 -5 -4 -4 -3 -3 -2 -2 -2 -2 -2 -2 -2 -2 -2 -2 -2 -2 -2 -2 -2 -2 -1 -1 -1
-11 -11 -10 -10 -10 -10 -10 -9 -9 -9 -9 -10 -10 -10 -9 -9 -10 -9 -9 -9 -8 -8 -8 -7 -7 -6 -5 -5 -5 -4 -4 -4 -3 -3 -3 -2 -2 -2 -2 -2 -2 -2 -2 -2 -2 -2 -2 -2 -2 -2 -1 -1
-12 -11 -11 -11 -11 -10 -10 -10 -10 -10 -10 -10 -10 -10 -10 -10 -10 -10 -10 -9 -9 -9 -9 -8 -8 -7 -6 -5 -5 -4 -4 -4 -4 -4 -3 -3 -2 -2 -2 -2 -2 -2 -2 -2 -2 -2 -2 -2 -3 -2 -1 -1
-12 -12 -12 -12 -11 -11 -11 -11 -10 -10 -10 -10 -10 -10 -10 -10 -10 -10 -10 -10 -9 -9 -9 -9 -9 -8 -7 -6 -6 -5 -5 -4 -4 -4 -4 -3 -3 -2 -2 -2 -2 -3 -2 -2 -2 -2 -2 -2 -3 -3 -2 -2
-13 -12 -12 -12 -12 -12 -12 -11 -11 -11 -11 -11 -11 -10 -10 -10 -10 -10 -10 -10 -10 -10 -9 -9 -9 -9 -8 -8 -7 -7 -6 -5 -4 -4 -4 -4 -4 -3 -3 -3 -3 -3 -3 -3 -3 -3 -3 -2 -2 -3 -2 -2
-14 -13 -13 -13 -13 -13 -13 -12 -12 -12 -12 -11 -11 -11 -11 -10 -10 -10 -10 -10 -10 -10 -10 -10 -9 -9 -9 -9 -8 -8 -7 -6 -6 -5 -5 -5 -5 -4 -4 -3 -3 -4 -3 -3 -3 -3 -3 -3 -3 -3 -3 -3
-14 -14 -14 -14 -13 -13 -13 -13 -13 -13 -12 -12 -12 -12 -11 -11 -11 -11 -11 -10 -10 -10 -10 -10 -10 -9 -9 -9 -9 -8 -8 -7 -7 -7 -6 -5 -5 -5 -5 -4 -4 -4 -4 -4 -3 -3 -3 -3 -3 -3 -3 -3
-14 -14 -14 -14 -14 -13 -13 -13 -13 -13 -13 -13 -12 -12 -12 -12 -11 -11 -11 -11 -11 -11 -10 -10 -10 -10 -10 -9 -9 -9 -8 -8 -8 -8 -8 -7 -6 -6 -5 -5 -6 -5 -5 -5 -4 -3 -3 -3 -3 -3 -3 -3
-13 -13 -13 -13 -13 -13 -13 -13 -13 -13 -13 -13 -13 -13 -13 -12 -12 -12 -11 -11 -11 -11 -11 -11 -10 -10 -10 -10 -10 -9 -9 -9 -8 -8 -8 -8 -8 -7 -6 -6 -6 -6 -6 -6 -5 -5 -4 -4 -4 -4 -4 -3
-13 -13 -13 -13 -12 -12 -12 -12 -12 -12 -12 -13 -12 -13 -13 -13 -13 -12 -12 -12 -11 -11 -11 -11 -11 -11 -10 -10 -10 -10 -10 -9 -9 -9 -9 -9 -9 -8 -8 -7 -7 -7 -7 -6 -6 -6 -5 -5 -4 -4 -4 -4
-15 -14 -13 -13 -12 -12 -12 -12 -12 -12 -12 -12 -12 -12 -12 -12 -12 -12 -12 -12 -12 -12 -11 -11 -11 -11 -11 -11 -10 -10 -10 -10 -10 -9 -9 -9 -9 -9 -9 -8 -8 -8 -7 -7 -7 -7 -6 -6 -5 -5 -4 -4
-18 -17 -16 -15 -14 -14 -13 -13 -13 -12 -12 -12 -12 -12 -12 -12 -12 -12 -12 -12 -12 -12 -12 -12 -12 -12 -11 -11 -11 -10 -10 -10 -10 -10 -9 -9 -9 -9 -9 -8 -8 -8 -8 -8 -8 -8 -8 -7 -6 -5 -5 -5
-18 -18 -18 -18 -17 -17 -16 -15 -14 -14 -13 -13 -13 -12 -12 -11 -11 -11 -11 -12 -12 -12 -12 -12 -12 -12 -12 -12 -11 -11 -11 -10 -10 -10 -10 -9 -9 -9 -9 -9 -8 -8 -8 -8 -8 -8 -8 -8 -8 -6 -6 -5
-18 -18 -18 -18 -19 -18 -18 -17 -16 -16 -15 -15 -15 -14 -13 -12 -12 -12 -11 -11 -11 -12 -12 -12 -12 -11 -11 -12 -11 -11 -11 -11 -10 -10 -10 -10 -9 -9 -9 -9 -9 -8 -8 -8 -8 -8 -8 -8 -8 -8 -7 -6
-18 -18 -18 -18 -19 -19 -19 -18 -17 -16 -17 -17 -17 -16 -15 -15 -14 -13 -13 -12 -11 -11 -11 -11 -11 -11 -11 -11 -11 -11 -11 -11 -11 -10 -10 -10 -10 -9 -9 -9 -9 -9 -8 -8 -8 -8 -8 -8 -8 -8 -8 -7
-18 -18 -18 -18 -19 -19 -19 -18 -17 -17 -17 -17 -17 -17 -17 -17 -16 -15 -15 -14 -13 -12 -11 -11 -11 -11 -11 -11 -11 -11 -11 -11 -11 -11 -10 -10 -10 -10 -9 -9 -9 -9 -9 -8 -8 -8 -8 -8 -8 -8 -8 -8
-18 -18 -18 -19 -19 -19 -19 -18 -18 -18 -18 -17 -17 -17 -17 -17 -17 -17 -17 -16 -15 -14 -13 -12 -11 -11 -12 -11 -11 -11 -11 -11 -11 -11 -11 -10 -10 -10 -10 -10 -9 -9 -9 -9 -8 -8 -8 -8 -8 -8 -8 -8
-18 -18 -18 -19 -19 -19 -19 -19 -18 -18 -18 -18 -18 -18 -17 -17 -17 -17 -17 -17 -17 -16 -15 -14 -13 -12 -12 -12 -12 -11 -10 -10 -10 -10 -10 -10 -10 -10 -10 -10 -10 -10 -10 -9 -9 -9 -8 -8 -8 -8 -7 -7
-18 -19 -19 -19 -19 -19 -19 -19 -19 -19 -19 -19 -18 -18 -18 -18 -18 -18 -18 -18 -18 -18 -17 -16 -15 -14 -13 -12 -13 -12 -11 -10 -10 -10 -10 -10 -10 -10 -10 -10 -10 -10 -10 -10 -9 -9 -9 -8 -8 -8 -7 -7
-18 -19 -19 -19 -19 -19 -19 -19 -19 -19 -19 -19 -18 -18 -18 -18 -18 -18 -18 -18 -18 -18 -17 -17 -17 -16 -15 -13 -13 -13 -12 -11 -11 -10 -10 -10 -10 -10 -10 -10 -10 -10 -10 -10 -10 -10 -9 -9 -8 -8 -8 -8
-19 -19 -19 -19 -19 -19 -19 -19 -19 -19 -19 -19 -19 -19 -19 -19 -19 -18 -18 -18 -18 -18 -18 -18 -17 -17 -16 -15 -15 -15 -14 -12 -12 -11 -11 -11 -11 -11 -11 -11 -10 -10 -10 -10 -10 -10 -9 -9 -9 -9 -9 -8
Height
3083 3083 3083 3083 3084 3084 3084 3085 3086 3086 3087 3088 3089 3090 3091 3092 3093 3094 3094 3094 3093 3093 3095 3096 3095 3095 3095 3096 3097 3096 3096 3098 3099 3100 3101 3102 3104 3106 3107 3108 3109 3110 3110 3110 3110 3112 3113 3114 3116 3117 3118 3119
3078 3078 3078 3079 3079 3080 3080 3081 3081 3082 3083 3084 3085 3086 3087 3088 3089 3089 3090 3090 3091 3091 3092 3092 3093 3093 3093 3093 3093 3093 3094 3094 3094 3095 3097 3099 3101 3103 3104 3105 3106 3107 3107 3108 3108 3109 3110 3112 3114 3114 3115 3117
3074 3074 3074 3074 3074 3075 3076 3076 3077 3078 3079 3079 3080 3081 3082 3084 3084 3085 3085 3086 3087 3088 3089 3089 3089 3090 3091 3091 3089 3090 3091 3091 3091 3092 3093 3096 3098 3099 3101 3102 3103 3104 3105 3105 3106 3106 3108 3110 3112 3112 3113 3114
3069 3069 3069 3069 3070 3070 3071 3072 3073 3073 3074 3075 3076 3076 3078 3079 3080 3081 3081 3082 3083 3083 3085 3085 3086 3086 3088 3088 3087 3087 3088 3088 3089 3090 3090 3092 3094 3096 3097 3099 3100 3101 3102 3103 3103 3104 3105 3107 3109 3110 3111 3112
3065 3065 3065 3065 3065 3065 3066 3067 3068 3069 3069 3070 3071 3071 3072 3073 3074 3076 3076 3077 3078 3079 3080 3081 3082 3082 3083 3084 3084 3084 3084 3084 3085 3086 3087 3089 3091 3092 3094 3095 3096 3097 3099 3100 3100 3101 3102 3104 3107 3108 3108 3109
3062 3061 3061 3061 3061 3061 3061 3062 3062 3063 3064 3065 3066 3066 3067 3068 3069 3070 3071 3072 3073 3074 3075 3075 3077 3078 3079 3079 3080 3080 3080 3080 3081 3082 3083 3085 3087 3089 3091 3092 3093 3094 3096 3097 3097 3098 3099 3100 3103 3105 3106 3106
3059 3059 3058 3058 3057 3057 3057 3057 3058 3058 3059 3060 3061 3061 3062 3063 3064 3065 3066 3067 3068 3069 3070 3071 3072 3073 3074 3075 3077 3077 3078 3078 3078 3079 3080 3082 3084 3085 3087 3088 3090 3091 3093 3094 3095 3096 3096 3097 3099 3101 3103 3104
3057 3056 3056 3055 3055 3054 3054 3054 3054 3054 3054 3055 3056 3056 3057 3058 3059 3059 3060 3062 3063 3065 3066 3066 3067 3068 3069 3070 3072 3073 3075 3075 3074 3075 3076 3078 3080 3081 3083 3085 3087 3088 3090 3091 3092 3093 3093 3094 3096 3097 3099 3101
3054 3054 3053 3053 3052 3052 3051 3051 3051 3050 3050 3051 3051 3052 3053 3053 3054 3055 3056 3057 3058 3060 3061 3062 3063 3063 3064 3066 3067 3069 3071 3071 3071 3072 3071 3073 3075 3077 3079 3080 3082 3085 3086 3088 3089 3090 3091 3091 3093 3093 3095 3097
3051 3051 3051 3050 3050 3049 3049 3048 3048 3048 3047 3047 3047 3047 3048 3049 3050 3050 3051 3052 3053 3055 3056 3058 3059 3059 3060 3061 3062 3064 3066 3067 3068 3068 3068 3068 3069 3071 3074 3076 3078 3080 3082 3084 3086 3087 3088 3088 3089 3090 3091 3093
3048 3048 3048 3047 3047 3046 3046 3046 3045 3045 3044 3044 3044 3043 3044 3045 3046 3046 3047 3048 3049 3050 3051 3053 3054 3056 3056 3057 3058 3059 3061 3063 3064 3065 3065 3065 3066 3067 3069 3071 3074 3076 3078 3080 3081 3083 3084 3084 3085 3087 3088 3089
3045 3044 3044 3044 3043 3043 3043 3043 3042 3042 3041 3041 3040 3040 3040 3041 3042 3042 3043 3043 3044 3045 3046 3048 3049 3051 3052 3053 3053 3054 3056 3058 3059 3060 3061 3062 3063 3064 3065 3067 3068 3071 3073 3075 3077 3079 3080 3081 3082 3083 3085 3086
3041 3041 3040 3040 3040 3040 3039 3039 3039 3038 3038 3037 3037 3036 3036 3038 3038 3038 3038 3039 3040 3041 3042 3043 3044 3045 3047 3048 3049 3050 3051 3052 3054 3055 3056 3058 3059 3060 3061 3063 3063 3065 3068 3071 3073 3074 3076 3078 3079 3080 3081 3083
3038 3038 3037 3037 3036 3036 3036 3036 3035 3035 3034 3034 3033 3033 3033 3033 3034 3034 3034 3035 3036 3037 3038 3039 3040 3041 3042 3043 3044 3045 3046 3047 3049 3050 3051 3053 3054 3055 3057 3058 3059 3060 3063 3065 3068 3070 3072 3074 3075 3077 3079 3080
3035 3034 3033 3033 3033 3032 3032 3032 3032 3031 3031 3030 3030 3029 3029 3029 3030 3030 3030 3031 3032 3032 3034 3034 3035 3036 3038 3039 3039 3040 3041 3042 3044 3046 3047 3048 3049 3050 3051 3053 3054 3055 3057 3059 3062 3065 3068 3070 3072 3073 3075 3077
3031 3030 3029 3029 3028 3028 3028 3028 3028 3028 3027 3026 3026 3025 3025 3025 3025 3026 3026 3027 3028 3029 3029 3030 3031 3032 3033 3034 3035 3036 3037 3038 3039 3041 3042 3043 3044 3046 3046 3048 3049 3050 3052 3054 3057 3060 3063 3066 3067 3069 3071 3074
3026 3025 3025 3025 3024 3024 3023 3023 3024 3024 3023 3023 3022 3022 3021 3021 3020 3021 3021 3022 3023 3024 3025 3026 3026 3027 3028 3029 3030 3031 3032 3034 3035 3035 3037 3038 3039 3041 3042 3043 3044 3044 3047 3049 3052 3055 3058 3061 3063 3065 3067 3070
3020 3019 3019 3019 3019 3019 3018 3018 3018 3018 3019 3018 3018 3018 3017 3016 3016 3016 3017 3017 3018 3019 3020 3021 3022 3022 3023 3024 3025 3026 3028 3029 3031 3031 3032 3033 3034 3035 3037 3039 3040 3040 3041 3043 3047 3050 3052 3055 3058 3060 3063 3065
3014 3013 3012 3012 3012 3013 3013 3012 3012 3012 3012 3013 3013 3013 3013 3012 3011 3011 3012 3012 3013 3013 3014 3015 3016 3017 3018 3019 3020 3021 3022 3024 3026 3027 3028 3029 3030 3031 3032 3034 3035 3036 3036 3037 3040 3043 3047 3050 3053 3056 3058 3061
3006 3005 3005 3004 3004 3005 3005 3006 3006 3005 3005 3006 3007 3007 3007 3007 3006 3006 3007 3007 3007 3008 3009 3010 3011 3012 3013 3014 3014 3015 3017 3019 3021 3022 3023 3024 3026 3027 3028 3029 3030 3032 3033 3034 3035 3037 3040 3044 3047 3050 3053 3055
2999 2997 2997 2996 2996 2996 2996 2997 2997 2997 2998 2998 2999 2999 3000 3001 3001 3001 3001 3002 3002 3002 3003 3004 3005 3006 3007 3008 3009 3010 3011 3013 3015 3017 3018 3020 3021 3022 3023 3025 3026 3027 3029 3030 3031 3033 3035 3038 3041 3044 3046 3049
2994 2992 2991 2989 2989 2988 2987 2987 2988 2988 2989 2989 2990 2990 2991 2992 2993 2995 2996 2996 2995 2996 2997 2998 2999 3000 3001 3002 3003 3004 3005 3007 3009 3011 3013 3015 3016 3017 3018 3020 3022 3023 3024 3026 3027 3029 3031 3034 3036 3038 3041 3043
2990 2989 2988 2986 2984 2983 2982 2981 2980 2980 2980 2981 2981 2981 2981 2983 2984 2986 2987 2988 2988 2989 2990 2991 2992 2993 2995 2996 2997 2998 2999 3001 3003 3005 3006 3008 3010 3012 3013 3014 3016 3018 3020 3021 3023 3025 3027 3030 3031 3033 3035 3038
2986 2984 2984 2983 2981 2979 2978 2977 2976 2974 2974 2974 2974 2973 2973 2974 2975 2976 2977 2978 2980 2981 2983 2983 2984 2986 2987 2989 2990 2991 2993 2995 2996 2998 3000 3001 3003 3005 3007 3009 3011 3013 3015 3016 3018 3021 3023 3025 3027 3029 3031 3033
2982 2980 2978 2977 2976 2974 2972 2971 2971 2970 2969 2968 2968 2967 2966 2967 2967 2967 2967 2968 2970 2972 2974 2975 2976 2978 2980 2982 2983 2984 2986 2988 2990 2991 2993 2995 2996 2998 3001 3004 3006 3008 3009 3011 3013 3016 3018 3020 3022 3024 3026 3028
2978 2977 2975 2973 2972 2970 2967 2966 2966 2966 2965 2964 2963 2962 2961 2960 2960 2960 2959 2959 2960 2962 2964 2966 2968 2970 2972 2973 2974 2976 2978 2980 2983 2984 2986 2988 2990 2992 2993 2996 3000 3002 3003 3005 3008 3010 3011 3014 3017 3020 3021 3023
2974 2973 2972 2970 2967 2965 2963 2962 2961 2961 2960 2959 2958 2957 2956 2955 2955 2954 2953 2952 2953 2953 2954 2956 2959 2961 2963 2964 2965 2967 2970 2972 2975 2977 2979 2981 2983 2984 2986 2989 2993 2995 2997 2999 3002 3003 3004 3008 3012 3013 3016 3019
2968 2967 2967 2965 2963 2961 2959 2957 2956 2955 2954 2954 2953 2952 2951 2950 2950 2949 2948 2947 2947 2946 2946 2947 2949 2951 2953 2955 2956 2958 2960 2963 2966 2969 2971 2974 2975 2977 2978 2981 2985 2988 2990 2992 2995 2996 2998 3002 3003 3005 3011 3014
2962 2962 2960 2959 2957 2956 2954 2953 2951 2950 2949 2948 2948 2947 2946 2945 2944 2944 2943 2942 2941 2941 2940 2940 2940 2941 2943 2946 2948 2949 2951 2954 2957 2960 2963 2965 2967 2969 2971 2973 2976 2980 2983 2986 2988 2989 2992 2995 2995 2999 3004 3005
2957 2956 2954 2952 2951 2949 2948 2947 2946 2945 2944 2942 2942 2942 2941 2941 2939 2938 2938 2937 2936 2935 2935 2934 2934 2934 2934 2937 2939 2940 2942 2945 2947 2950 2954 2956 2959 2961 2963 2965 2967 2971 2975 2979 2980 2982 2985 2988 2989 2993 2996 2997
2950 2949 2948 2946 2945 2944 2943 2941 2940 2940 2938 2937 2936 2936 2936 2935 2934 2933 2932 2931 2931 2930 2929 2928 2928 2928 2927 2929 2931 2932 2933 2935 2938 2940 2944 2947 2949 2952 2955 2957 2958 2962 2967 2970 2972 2975 2978 2980 2983 2986 2988 2990
Wind_Speed
37 36 36 36 36 37 38 38 38 39 38 38 37 36 36 36 34 32 32 30 30 31 30 31 33 35 35 34 33 32 32 31 29 29 29 28 26 24 23 26 28 30 31 31 30 28 28 27 27 26 26 27
37 37 36 36 36 36 37 37 38 38 39 39 39 39 38 38 37 35 35 34 33 34 33 32 33 34 34 34 33 34 36 36 34 31 28 27 26 25 24 25 27 29 31 33 32 31 30 28 27 27 27 27
36 36 36 36 36 36 36 37 37 38 39 39 40 40 40 41 40 39 40 40 39 37 35 35 37 37 34 33 34 33 35 36 35 32 29 27 27 26 26 26 28 29 30 32 33 33 32 30 28 27 27 27
35 35 35 35 35 35 35 36 36 37 38 39 40 41 41 41 43 43 43 43 42 41 39 39 40 41 41 40 39 37 36 38 35 33 31 30 29 28 28 28 28 29 31 31 32 32 32 31 29 27 28 28
36 35 35 35 35 34 35 35 35 35 36 38 39 40 41 42 44 45 45 45 45 44 43 43 42 41 39 39 40 40 40 40 38 35 34 33 32 31 30 29 29 30 31 32 33 33 33 31 29 28 29 29
36 35 35 35 35 34 34 34 33 34 35 36 37 38 40 41 43 45 46 47 47 47 47 46 44 43 40 35 36 39 40 39 39 37 34 33 33 33 32 30 29 29 30 32 33 33 34 33 31 30 30 30
35 35 35 34 34 33 33 33 33 33 33 33 35 37 38 39 41 43 45 47 47 47 48 49 47 46 47 44 39 38 40 41 40 38 36 35 34 34 34 32 31 31 31 31 32 33 34 33 32 32 31 31
34 35 34 34 34 33 33 33 32 32 32 32 33 34 35 36 38 40 42 44 45 45 45 48 50 48 48 48 46 41 41 44 45 43 41 39 37 36 36 35 34 34 32 31 31 32 33 33 32 32 32 32
35 35 35 35 35 34 33 33 32 32 32 32 32 33 33 33 35 37 38 40 43 45 43 43 47 49 47 46 47 44 42 43 46 47 45 44 43 39 38 37 36 36 34 33 33 33 34 34 33 33 33 33
35 35 36 36 36 36 35 34 33 32 32 32 32 32 33 32 32 34 36 37 39 42 44 44 44 46 47 47 46 44 43 44 45 45 46 47 46 43 39 38 37 36 36 36 36 37 36 34 34 34 33 32
35 36 36 37 37 37 37 36 35 34 33 33 32 33 33 32 32 33 34 35 36 38 42 45 45 43 44 47 47 45 44 45 46 46 46 45 46 45 41 39 38 37 38 38 38 38 36 33 33 34 33 32
35 36 36 37 38 38 38 38 37 36 36 35 34 34 35 33 32 34 34 35 36 37 38 41 45 45 43 43 45 46 45 44 45 47 48 47 46 47 44 40 38 39 39 39 39 39 38 35 33 35 35 33
36 36 37 37 38 39 39 39 38 38 38 37 37 37 37 34 33 34 35 35 36 37 38 38 41 45 46 44 43 43 43 43 43 45 48 50 50 49 47 43 38 38 39 38 39 39 40 38 34 35 36 35
37 38 38 38 38 39 39 40 39 39 39 39 39 39 39 37 35 35 35 36 36 37 38 38 39 42 46 46 45 43 42 41 42 43 45 49 52 50 50 48 42 37 37 37 38 39 40 40 38 36 35 35
40 40 40 40 39 39 40 40 40 40 40 40 40 40 41 40 38 37 37 37 37 37 37 38 39 41 43 45 46 46 45 43 42 43 43 45 48 49 50 50 46 40 37 37 37 39 41 41 40 39 37 36
40 40 41 41 41 41 41 41 40 40 41 41 41 41 42 43 42 40 40 39 38 38 38 38 39 40 41 43 45 46 47 48 46 44 44 42 43 45 47 48 46 42 41 41 39 38 39 40 41 41 40 39
43 42 41 41 41 42 42 42 42 41 42 42 43 43 43 44 44 43 42 42 41 40 39 40 40 40 40 41 43 46 48 49 48 46 46 45 42 41 42 44 43 41 41 43 44 42 40 39 40 40 40 40
48 48 46 44 44 43 43 44 44 43 43 43 44 44 45 46 46 46 45 44 43 42 42 41 41 42 42 41 42 43 46 48 48 47 47 48 47 44 42 41 39 39 39 41 45 47 46 44 42 40 39 39
53 52 52 51 49 47 47 47 47 46 45 45 44 44 45 46 47 48 47 47 46 45 44 43 43 43 43 43 43 42 43 45 46 47 47 47 47 48 47 44 41 39 38 39 42 45 48 49 48 46 43 41
59 57 56 55 54 52 51 50 50 50 49 49 48 47 46 46 47 48 48 48 48 48 46 45 44 44 44 44 44 44 43 43 44 45 46 46 45 47 49 49 46 42 40 38 38 40 43 47 50 51 50 47
58 59 59 59 59 57 55 54 52 51 51 51 51 51 50 50 50 49 49 48 48 48 48 47 46 45 45 45 45 45 45 44 43 44 45 45 44 45 47 48 49 47 44 42 39 38 39 42 46 49 51 51
45 49 51 52 55 55 55 54 53 52 51 51 51 52 52 53 53 52 52 51 51 50 48 48 48 47 46 46 46 47 46 45 44 44 44 44 44 45 46 47 48 49 47 46 43 41 38 39 42 46 48 49
38 41 39 40 44 45 46 48 48 49 49 48 48 49 50 52 52 52 52 53 54 54 52 51 49 49 48 47 47 48 47 47 45 45 44 45 45 45 45 46 47 49 49 48 47 45 42 40 41 44 46 47
38 38 36 36 37 39 40 40 41 42 42 42 41 43 46 47 49 50 51 52 53 55 56 56 54 52 50 49 49 49 49 48 48 47 46 46 46 46 46 46 46 47 49 50 49 48 46 44 43 44 46 47
35 35 36 36 35 36 38 38 37 36 36 36 35 36 38 40 42 45 47 49 51 52 54 57 58 57 54 52 52 51 50 50 50 49 49 48 48 48 48 47 47 46 48 50 51 51 49 47 45 45 46 48
33 33 33 34 34 35 37 38 37 35 33 33 33 33 33 34 36 39 41 45 48 49 51 54 56 58 57 56 55 54 54 52 51 51 51 51 51 51 50 49 48 47 48 49 51 52 52 51 48 47 47 49
34 33 32 31 33 35 38 39 38 37 35 34 33 33 32 32 32 34 36 40 43 45 48 50 53 54 55 57 58 58 57 56 55 53 53 53 53 54 54 53 51 49 49 49 50 51 53 53 52 50 49 47
38 37 35 33 33 35 38 40 40 39 38 36 35 35 34 33 32 32 33 35 37 41 44 47 50 52 53 55 57 59 60 60 59 57 56 55 55 55 56 56 55 53 52 51 50 51 53 53 53 54 52 49
40 39 38 38 37 36 38 39 40 41 41 40 38 36 36 35 35 33 32 33 34 36 39 42 46 49 53 53 54 57 61 62 62 61 60 58 57 57 57 58 58 57 55 54 53 52 52 52 53 53 53 53
39 39 40 41 40 40 40 40 40 40 41 42 40 38 36 36 37 37 35 34 34 35 36 38 41 44 49 51 51 54 58 61 62 62 62 61 60 59 59 59 59 59 58 56 55 54 54 53 53 52 52 53
34 35 38 39 40 40 40 41 41 40 40 41 40 39 37 37 37 38 38 37 37 37 37 37 38 39 44 47 47 50 55 59 61 62 63 62 62 61 60 60 61 61 60 59 58 56 55 54 53 53 53 53
Wind_Direction
261 259 257 255 254 253 254 253 252 251 249 247 245 244 243 245 248 250 251 251 251 250 251 255 256 250 243 243 246 249 252 251 246 244 245 244 244 244 241 239 237 233 232 235 237 239 239 240 242 242 241 240
263 262 260 258 256 254 254 253 252 251 250 248 246 245 243 244 245 245 247 249 250 250 249 251 254 248 238 234 240 247 252 251 246 241 238 240 242 243 239 237 238 237 236 236 236 238 240 239 239 241 242 241
266 264 263 261 259 256 254 253 252 251 250 249 247 246 245 244 244 244 246 248 249 249 248 249 251 251 246 240 239 243 245 242 240 239 236 238 239 241 239 237 238 237 237 237 238 240 241 239 238 239 240 240
270 268 267 265 263 260 257 255 253 252 251 250 249 247 246 244 244 244 245 247 248 248 248 248 249 249 248 247 245 245 242 236 235 236 238 239 238 236 235 236 236 235 236 238 240 241 242 240 239 239 240 241
272 271 271 269 267 265 262 260 257 254 252 251 250 249 247 246 244 244 244 245 245 246 247 247 247 244 241 240 241 240 237 234 232 233 237 241 240 234 229 231 233 233 234 238 240 242 244 243 240 240 241 242
271 271 271 271 270 269 267 265 262 258 255 253 252 250 248 247 245 244 244 244 244 244 245 246 246 245 243 240 238 237 234 231 231 232 235 238 238 233 226 227 230 232 234 236 240 242 245 245 243 241 241 243
270 270 270 270 270 269 269 268 266 263 260 257 254 252 250 248 246 245 244 243 243 244 245 246 247 246 246 247 247 243 239 236 235 234 233 234 234 231 228 228 229 233 236 237 238 241 245 247 245 243 241 243
271 271 271 270 270 269 269 269 268 268 265 261 258 256 254 252 249 246 244 242 241 242 245 247 248 249 249 249 249 249 247 245 242 237 233 231 232 232 231 232 232 234 236 236 237 239 244 246 246 245 243 243
272 272 272 271 271 270 269 269 268 268 268 266 263 260 257 256 253 250 247 245 242 239 241 245 248 250 251 250 249 249 249 248 244 240 235 231 229 230 229 228 230 232 233 234 235 237 241 244 245 247 247 246
270 271 271 270 270 270 269 269 268 267 267 267 265 263 261 258 257 255 251 249 247 243 240 241 245 249 251 252 251 248 247 247 245 242 237 232 228 225 224 224 225 229 231 232 233 234 237 238 240 243 246 247
269 269 269 269 269 268 268 267 267 267 266 265 265 264 263 260 257 256 255 252 250 248 244 241 241 244 247 249 250 248 245 245 245 244 240 236 232 226 223 222 223 225 229 231 231 232 232 233 234 236 240 243
269 268 268 267 267 266 266 266 265 265 265 264 263 263 263 261 257 255 255 253 251 250 249 245 241 242 244 244 245 246 245 243 243 244 244 241 237 231 226 222 219 221 225 229 231 231 230 230 231 232 235 238
271 269 268 266 265 265 264 264 264 263 263 263 263 263 262 260 257 256 254 253 252 250 249 248 245 243 244 244 243 242 241 241 241 242 242 241 238 233 229 223 218 217 220 224 227 230 229 228 229 231 232 234
274 273 271 268 266 264 263 262 262 262 262 262 261 262 262 261 258 256 255 252 252 250 249 248 247 245 244 246 247 245 242 239 238 239 238 238 237 233 229 226 220 216 215 218 222 227 229 228 229 230 231 232
279 276 274 272 270 268 265 263 261 261 261 261 261 261 261 260 259 257 255 253 252 250 249 247 247 246 245 246 249 250 248 244 240 238 237 235 234 231 228 225 223 219 215 214 216 221 226 227 229 230 230 232
284 281 278 277 275 273 271 268 265 264 263 262 261 261 260 260 259 258 256 255 253 251 249 247 246 246 246 246 247 249 250 249 248 244 240 237 235 232 229 225 223 221 220 219 216 216 220 224 226 228 230 232
290 287 283 281 280 278 276 274 270 268 266 265 264 263 262 261 260 259 258 256 255 253 250 248 247 246 245 245 246 247 247 249 252 252 248 245 242 237 233 228 224 221 221 224 223 219 219 221 223 226 230 232
293 291 288 285 283 282 281 279 276 272 269 267 266 266 265 264 263 261 260 258 257 255 253 250 248 246 246 246 246 246 246 246 250 253 254 253 251 247 242 237 231 225 220 222 225 225 223 222 223 224 227 230
295 293 291 289 287 285 284 283 281 278 275 271 268 267 267 266 265 263 262 261 259 257 256 253 251 249 246 246 246 246 246 246 247 250 253 255 255 254 252 248 243 237 228 222 221 224 226 226 226 226 225 226
298 295 292 291 289 287 286 284 282 281 278 275 272 269 268 268 267 265 263 262 261 260 258 257 255 252 249 247 246 246 246 246 246 247 250 252 255 255 255 254 252 248 243 235 227 225 226 227 228 228 228 228
301 298 296 294 292 291 290 288 285 283 280 277 275 272 271 269 268 267 266 264 263 261 260 259 258 256 254 251 248 246 246 246 246 246 247 250 252 254 254 254 254 254 251 247 242 236 231 230 229 229 229 229
300 298 299 298 296 296 295 293 291 288 284 280 277 275 273 271 269 268 267 266 265 263 261 260 259 258 257 255 252 249 247 247 247 247 247 247 249 252 253 253 252 253 253 252 250 247 243 239 235 232 230 230
295 296 297 296 296 297 295 294 293 291 288 285 283 280 276 273 271 269 267 266 265 264 262 261 261 260 259 258 256 254 251 249 249 248 248 247 247 248 250 252 251 251 252 252 251 250 249 247 243 239 235 233
296 297 296 294 294 294 293 293 293 292 292 291 288 283 279 276 273 271 268 265 263 262 262 262 262 261 260 259 259 258 255 254 252 251 251 250 249 249 248 249 251 251 251 251 250 250 249 248 247 245 242 238
297 297 297 296 294 291 291 293 295 296 296 295 292 287 282 278 275 272 270 267 264 262 261 261 262 261 261 260 260 260 258 257 256 255 254 253 252 252 251 249 249 250 251 250 249 248 248 247 247 247 246 243
296 296 298 298 295 291 290 293 297 299 298 297 296 293 288 284 279 275 273 270 267 264 261 260 260 261 261 261 261 260 260 259 259 259 258 258 256 255 255 253 251 252 252 250 249 248 248 246 245 245 246 246
296 295 296 296 294 292 292 294 296 297 298 298 298 297 294 291 286 281 278 275 272 268 265 261 259 259 259 260 260 260 260 259 259 260 260 261 260 259 258 256 254 254 255 253 251 250 249 247 246 245 244 245
296 297 297 295 293 291 291 294 295 297 298 297 296 296 295 294 292 288 284 280 277 274 270 266 262 259 258 257 258 259 259 259 258 259 259 260 260 260 260 259 257 256 257 256 254 254 252 249 249 247 244 244
294 296 295 294 292 291 290 291 293 295 295 294 293 292 293 294 293 292 288 284 281 277 274 271 267 264 260 257 257 257 257 257 257 257 257 257 258 258 259 260 259 258 258 257 257 256 254 252 252 250 248 247
293 291 290 290 291 291 291 291 290 291 292 292 292 292 292 292 291 290 288 286 284 281 278 274 271 269 264 260 258 257 257 256 256 255 255 255 255 255 257 258 258 258 257 257 257 257 255 254 254 253 252 251
297 289 286 286 288 289 291 291 291 290 291 291 293 293 293 291 289 288 287 285 283 281 280 277 275 272 268 264 261 258 256 255 255 254 253 253 253 253 253 254 255 256 256 255 256 257 257 255 254 254 254 253